RH
8 7 7 7 7 7 7 7 7 7 7 7 7 7 7 8 8 8 8 8 8 8 8 8 8 8 8 8 8 9 8 8 8 8 8 8 9 9 9 9 9 9 9 10 10 10 10 9 9 9 9 10 10 10 10 11 11 11 12 12 12 13 12 12 13 13 12 12 12 12 13 12 12 12 12 11 10 11 11 9 10 11 10 10 11 11 13 13
8 7 7 7 7 7 7 7 7 6 6 6 6 7 7 7 7 7 7 7 7 7 8 8 8 8 8 8 8 8 9 9 9 8 8 9 8 9 9 9 9 9 9 9 10 10 10 10 10 10 10 10 10 10 10 10 11 11 12 12 12 12 13 13 13 13 13 13 13 13 13 14 13 13 14 13 13 13 12 11 12 13 12 11 10 9 11 12
7 7 7 7 7 7 7 6 6 6 6 6 6 6 6 6 6 6 7 7 7 7 7 7 7 8 8 8 8 8 8 9 9 9 9 9 9 9 9 9 9 9 9 9 10 10 10 10 10 10 10 10 10 11 10 10 10 10 11 11 12 11 12 12 12 12 13 13 12 12 12 12 13 13 13 13 13 14 13 12 13 14 14 13 12 10 9 10
7 7 7 6 6 6 6 6 6 6 6 6 6 6 6 6 6 6 6 6 6 6 6 7 7 7 7 7 8 8 8 9 9 9 9 9 9 9 9 9 9 9 9 9 9 10 10 10 10 11 11 11 11 11 11 11 10 10 11 11 11 11 11 12 12 12 12 12 12 12 11 11 12 11 12 12 12 13 13 12 12 13 13 13 13 12 11 11
6 6 6 6 6 6 6 6 5 5 5 5 5 5 6 6 6 6 6 6 6 6 6 6 7 7 7 7 7 7 7 8 9 8 8 8 9 9 9 9 9 9 9 9 9 9 9 10 10 10 10 11 11 12 12 12 11 11 11 11 11 11 11 11 11 11 11 11 11 11 11 11 11 11 11 11 12 12 11 11 11 11 12 12 12 13 13 12
5 5 5 5 5 5 5 5 5 5 5 6 6 6 6 6 6 6 6 6 6 6 6 6 6 6 7 7 7 7 7 8 8 8 8 8 8 9 9 9 9 9 9 9 9 9 9 9 9 9 9 10 10 10 11 12 11 11 12 12 11 11 11 11 11 11 11 11 11 11 11 11 11 10 10 10 12 12 11 10 10 10 11 11 11 12 12 12
6 6 6 6 6 6 6 6 6 7 7 8 8 9 9 9 9 9 8 8 7 7 7 7 6 6 6 6 6 7 7 7 7 7 7 8 8 8 8 8 8 9 9 9 10 10 10 9 9 9 9 10 10 9 10 10 10 10 11 11 11 10 10 10 10 9 10 10 10 10 10 11 11 10 10 11 13 12 10 10 10 10 10 10 10 11 11 12
8 8 8 8 8 8 8 8 9 10 10 11 11 11 12 11 11 11 11 10 10 9 9 8 8 8 8 7 7 7 8 8 8 8 7 8 8 8 8 8 8 8 8 9 9 10 10 10 10 9 9 10 10 10 10 9 9 9 10 10 9 10 10 9 9 9 9 9 10 9 10 10 10 9 9 12 14 12 10 10 10 10 10 10 9 9 10 10
8 9 9 10 10 11 11 11 12 12 13 14 15 15 16 16 15 15 15 14 13 13 12 12 11 10 10 10 9 9 9 9 9 9 9 9 9 9 8 8 8 8 8 8 8 9 9 10 10 10 10 10 10 10 10 10 10 10 9 9 9 9 9 9 9 10 9 9 9 9 10 10 10 9 8 12 14 11 10 10 11 11 10 10 10 9 9 9
15 14 13 12 12 11 12 13 14 15 17 18 19 20 20 20 20 20 20 20 20 19 19 19 18 17 16 14 13 12 12 12 11 12 11 11 11 10 10 9 8 8 8 8 8 8 9 9 9 10 10 10 10 11 11 11 10 10 10 9 9 9 9 10 10 10 10 8 9 9 10 9 9 8 8 11 13 11 10 10 11 11 10 11 10 10 9 9
30 30 28 26 24 21 19 17 16 16 17 18 19 21 22 23 24 23 22 22 23 24 25 25 26 26 24 23 21 17 15 14 13 13 13 13 13 12 11 11 10 9 8 8 9 9 9 9 9 9 9 10 10 11 11 11 11 10 10 10 10 10 9 9 10 10 9 9 9 9 9 9 8 8 8 10 11 10 10 10 11 10 10 10 10 10 9 9
41 42 41 41 40 39 37 34 32 29 26 24 22 21 21 22 23 23 23 23 23 24 25 26 28 29 29 29 27 23 21 20 18 17 15 14 14 14 14 13 12 11 11 10 10 9 9 9 9 9 10 10 10 11 12 11 11 10 10 11 10 10 10 10 11 10 9 9 10 11 10 9 9 9 9 10 10 10 9 10 10 10 10 10 10 10 10 10
44 44 43 43 43 43 43 43 43 43 43 41 38 35 31 28 26 24 23 23 23 23 23 24 26 28 30 30 28 29 29 29 28 26 22 19 17 15 15 14 14 13 13 12 12 12 11 11 11 11 11 11 12 12 11 11 10 10 11 10 10 11 10 11 12 11 10 11 11 13 12 9 9 10 10 10 10 10 9 9 10 9 9 10 10 10 10 11
43 42 42 42 41 42 42 42 43 44 45 46 46 46 45 43 40 35 31 27 25 24 23 24 24 25 29 29 28 32 34 33 32 30 28 26 22 19 17 16 15 14 14 14 14 13 13 13 13 13 13 14 14 14 12 11 11 12 12 11 12 12 9 9 11 11 11 12 12 13 13 10 10 11 11 11 10 9 9 9 10 10 9 10 10 11 10 11
43 42 42 42 41 41 41 40 40 40 40 41 43 43 44 46 46 45 42 37 33 29 25 24 25 26 28 28 28 32 34 33 33 32 31 31 28 26 23 20 18 16 15 15 14 14 14 13 13 15 16 16 16 14 12 12 13 13 13 13 14 13 9 9 11 11 12 13 14 14 14 11 10 11 12 12 11 10 9 9 10 10 10 11 11 11 11 11
44 43 42 40 39 38 37 35 33 32 31 31 34 36 39 40 42 43 43 43 41 37 32 28 27 27 29 29 29 32 34 35 36 37 38 37 33 30 27 25 21 18 17 16 15 15 14 14 14 15 16 17 17 14 12 13 14 15 16 17 15 12 10 10 11 12 14 15 15 15 14 12 11 12 12 11 10 10 9 9 9 10 10 11 11 11 11 11
44 43 40 38 36 34 33 31 30 29 24 20 22 25 29 33 36 38 40 41 42 42 40 35 33 31 31 33 33 33 34 36 38 39 38 37 34 32 30 29 26 24 22 20 19 18 17 16 16 16 17 18 15 13 13 15 17 18 19 17 14 12 11 11 11 12 14 14 15 14 12 11 11 13 12 11 11 10 9 9 9 10 10 11 12 12 12 12
43 42 39 37 35 33 32 31 31 31 23 17 17 17 19 23 27 32 35 37 39 41 42 41 40 38 36 36 36 35 34 35 36 38 38 37 38 39 38 37 36 33 30 28 26 24 23 21 20 20 19 17 15 15 16 19 20 20 19 15 12 12 12 11 11 13 14 14 14 14 13 12 12 12 12 13 13 10 8 9 9 9 10 12 13 13 13 12
42 41 39 37 36 34 34 33 34 33 24 20 20 17 15 15 17 22 26 31 36 39 40 40 40 41 41 41 40 38 37 36 37 38 39 40 42 43 45 46 46 46 43 41 40 37 35 30 25 24 23 22 20 18 18 20 23 20 17 15 12 12 12 12 12 13 15 15 14 14 14 14 12 12 12 13 15 13 11 10 9 9 10 12 14 14 13 12
44 42 40 39 38 37 36 36 36 34 25 23 25 24 22 20 17 17 18 22 27 33 36 36 36 38 40 42 44 43 40 38 37 37 37 40 41 42 45 47 49 51 51 51 52 53 51 41 32 33 37 39 38 34 27 21 20 19 17 15 13 13 13 12 13 14 15 15 14 15 15 14 12 11 12 13 13 14 14 13 11 10 12 13 14 14 14 13
47 44 42 40 40 39 39 38 37 32 25 25 28 28 28 28 25 23 21 20 22 25 28 31 33 32 35 40 43 45 44 41 40 37 35 36 38 41 46 49 51 51 52 54 55 54 52 44 43 52 58 59 55 49 40 29 22 19 18 16 14 15 14 13 14 14 14 15 13 14 13 12 11 10 11 12 12 13 13 13 13 13 13 14 15 14 14 14
49 46 43 42 41 40 40 39 36 30 26 28 31 31 31 30 29 28 25 23 25 27 25 26 28 26 30 36 39 42 44 43 43 44 44 44 43 47 50 50 50 50 52 55 54 49 44 42 51 65 71 65 55 47 41 35 30 26 22 18 16 16 15 14 14 14 14 14 13 12 12 11 10 9 9 10 11 11 12 12 13 14 14 15 15 15 14 14
51 48 46 44 43 43 41 39 33 28 28 31 34 37 36 34 32 30 27 24 24 28 27 26 27 25 27 31 33 36 37 38 41 47 54 56 54 57 56 53 52 52 52 53 52 47 39 41 55 67 70 63 56 53 46 36 32 31 28 23 18 17 17 14 15 16 15 14 13 12 11 9 8 8 8 9 9 9 10 11 12 13 14 15 15 14 14 14
49 48 46 45 44 41 38 34 30 28 30 34 38 42 43 41 39 35 32 28 25 27 28 28 27 26 27 30 30 31 31 32 36 40 50 54 54 58 58 58 57 53 52 54 54 48 41 45 55 59 62 61 58 59 55 44 34 29 28 28 26 21 19 17 17 17 16 14 14 14 11 8 7 7 6 7 8 8 9 12 12 12 14 14 14 14 14 14
46 45 44 42 40 37 35 33 32 32 35 40 45 47 47 46 45 42 38 34 29 29 31 32 31 27 28 31 32 34 31 30 32 37 45 50 53 55 54 57 56 51 54 59 57 48 43 49 52 49 54 59 59 59 60 56 45 33 30 34 35 29 23 19 18 18 17 15 14 15 13 8 7 7 7 8 8 8 10 14 15 15 16 16 14 13 14 14
48 46 46 44 41 40 38 36 37 40 42 46 47 48 49 48 47 48 46 42 34 31 35 37 37 35 33 33 35 37 33 29 34 40 44 50 57 59 55 54 54 51 54 60 56 42 38 47 51 49 51 55 57 58 60 63 56 42 37 40 39 33 29 25 22 20 18 16 16 17 15 11 8 8 8 9 10 10 12 15 17 19 19 18 17 15 14 14
59 54 55 52 50 48 44 41 42 44 45 47 47 48 49 49 51 53 53 49 37 32 36 39 41 42 40 40 40 39 36 33 37 41 45 53 58 59 54 51 53 53 53 56 49 35 36 46 51 55 58 58 55 53 58 69 63 44 42 48 43 37 34 30 29 26 23 20 17 16 18 15 9 9 10 11 12 12 12 16 19 21 22 22 22 20 17 16
65 61 60 58 57 53 48 45 42 43 44 44 46 49 50 50 54 58 58 50 35 30 35 37 39 41 42 44 43 42 42 40 41 44 47 53 54 52 51 51 55 56 57 57 45 34 43 52 54 58 61 60 58 59 65 74 63 44 46 52 49 46 41 36 34 31 29 25 19 17 21 20 13 10 13 13 13 13 14 18 21 24 27 27 25 24 24 23
66 64 65 62 60 57 53 47 43 41 41 44 51 57 59 56 56 62 63 51 35 32 36 36 37 40 43 45 44 45 46 44 46 48 49 51 52 53 53 57 65 65 63 63 49 41 52 58 57 57 56 56 63 70 73 73 63 51 52 53 52 51 46 44 41 36 35 28 20 19 23 26 20 13 15 15 14 16 17 19 22 25 29 28 29 30 30 31
71 72 74 75 74 70 62 55 49 43 41 55 73 82 78 65 62 70 65 47 39 40 40 38 40 42 43 44 45 45 46 47 48 49 50 50 52 54 54 59 69 69 66 65 52 51 65 65 58 58 58 61 70 74 73 71 68 65 63 61 60 56 51 52 47 43 41 28 20 23 29 35 25 11 13 16 16 18 19 20 24 28 32 32 33 34 34 35
84 87 90 92 94 90 82 76 71 64 61 66 80 93 93 83 79 76 59 45 48 50 45 46 46 44 43 43 44 46 48 49 50 52 52 51 51 52 51 54 62 66 68 66 55 60 70 65 62 68 70 72 75 74 71 70 70 72 72 72 73 68 61 57 50 50 45 29 24 29 35 41 26 9 14 17 17 20 20 23 28 32 35 35 37 37 36 35
96 99 99 99 98 96 94 92 86 85 83 72 71 81 91 97 88 65 51 58 62 52 47 54 55 51 49 46 44 47 48 46 50 55 53 51 50 48 50 53 56 60 63 61 58 63 64 59 64 70 69 71 74 71 69 69 72 73 71 75 79 75 68 62 56 56 47 32 30 37 42 38 17 8 16 19 20 25 26 29 32 35 37 38 41 42 42 38
100 101 100 100 99 94 93 91 87 93 96 87 82 81 89 100 83 55 56 72 70 57 56 62 60 58 55 49 47 48 47 45 50 57 55 51 47 46 51 56 60 64 64 64 64 62 56 51 56 61 62 68 71 71 70 70 72 71 69 75 79 74 70 68 63 57 47 36 39 49 48 29 9 8 17 20 24 29 30 31 33 36 37 38 43 46 48 47
100 100 100 101 100 96 94 91 90 97 101 99 98 96 98 96 74 58 66 74 72 71 72 70 64 61 56 53 55 57 58 57 55 59 59 51 45 47 50 58 73 85 88 88 76 67 67 52 42 56 68 67 67 72 77 77 74 71 72 80 78 72 71 71 67 57 49 44 41 46 42 24 12 14 18 21 26 29 32 34 34 36 39 42 47 50 52 52
100 100 100 100 98 97 98 97 94 98 101 100 100 102 101 88 70 69 73 74 78 81 80 76 70 67 62 61 66 65 66 67 63 66 66 57 52 52 52 62 85 98 101 101 89 85 90 65 41 58 72 65 67 74 78 82 78 71 76 82 78 75 73 72 70 62 60 57 40 33 33 23 19 22 25 30 33 35 39 40 39 41 47 49 50 51 51 50
95 94 93 94 94 94 96 97 96 99 102 101 101 101 95 82 73 78 80 82 91 94 92 89 81 73 66 63 66 67 69 72 70 71 70 66 62 58 57 68 89 100 100 101 98 97 100 82 60 69 76 69 73 80 84 88 84 77 78 78 80 89 90 87 86 77 78 77 51 34 33 28 25 25 25 31 36 38 40 39 39 45 53 56 52 51 50 48
82 81 79 78 82 84 86 88 88 92 97 98 100 99 92 83 78 85 93 95 99 101 101 99 91 83 75 70 69 72 81 84 80 79 77 73 66 58 60 68 80 97 102 100 99 96 98 97 82 74 78 76 74 78 84 86 87 88 85 77 79 90 91 90 93 87 85 86 65 44 38 34 31 25 22 30 37 38 39 39 40 46 53 57 55 55 56 56
79 76 73 71 73 73 74 76 76 79 82 83 86 85 83 81 83 94 102 100 100 102 100 100 97 92 89 86 79 78 90 95 94 94 92 87 75 61 65 74 80 95 103 100 100 96 96 102 94 78 74 75 75 75 73 73 83 92 92 87 84 85 83 82 90 93 91 89 75 54 41 35 30 24 25 33 38 39 43 44 44 48 54 57 56 56 60 65
77 73 69 66 67 66 66 68 68 69 71 72 73 72 70 71 78 90 100 100 101 101 99 100 100 97 96 94 88 86 92 98 100 101 99 98 90 72 73 88 92 96 100 99 100 99 97 100 100 88 75 72 72 68 62 66 79 88 91 92 90 89 89 88 94 98 96 95 88 70 51 35 28 28 30 34 38 44 52 50 48 55 60 61 63 65 71 76
72 68 64 60 59 59 58 59 59 61 63 64 66 66 67 68 70 78 89 96 99 99 98 98 99 101 101 96 93 93 96 99 101 102 100 99 94 80 76 91 100 98 99 101 100 100 100 99 99 96 88 79 69 63 67 76 85 91 94 94 90 88 92 97 100 94 88 93 97 88 69 42 29 35 37 36 39 46 57 59 55 62 67 66 70 76 82 89
66 62 58 54 53 52 51 50 50 51 52 54 56 58 61 65 66 67 73 79 85 88 88 88 89 93 96 94 90 90 95 98 96 99 101 98 95 88 81 86 95 95 93 97 100 100 98 97 97 98 97 93 79 71 78 84 86 92 96 92 87 84 89 98 100 88 81 90 96 98 91 61 35 36 37 34 36 41 51 58 57 62 67 67 70 72 74 79
59 56 52 49 46 43 40 37 37 41 42 44 46 47 51 56 59 61 63 66 70 73 75 75 75 75 79 81 79 79 86 89 86 87 89 88 90 89 83 83 90 93 92 94 99 100 99 99 99 98 99 99 92 83 83 86 89 93 95 94 91 88 88 93 98 94 92 99 99 99 103 79 43 36 38 32 33 37 41 47 51 56 62 64 69 72 68 65
51 47 45 43 38 33 27 25 29 32 33 33 33 33 36 40 44 49 54 58 60 62 65 66 66 66 67 67 68 70 74 76 74 72 73 78 86 89 87 87 92 98 98 98 99 99 100 100 99 99 100 100 100 96 89 86 89 94 98 100 98 96 95 96 101 101 97 100 98 97 104 87 49 37 41 34 31 34 35 40 49 55 66 79 86 87 80 72
38 35 34 34 31 25 20 21 24 23 23 24 24 23 22 22 27 32 36 39 40 43 48 53 58 61 60 60 62 62 63 65 63 62 64 70 77 87 94 93 94 99 100 99 101 100 99 101 100 99 98 96 98 97 87 79 84 93 97 99 99 99 101 101 100 101 100 98 95 97 102 89 59 46 46 39 35 37 38 45 55 59 71 91 101 99 95 92
24 25 25 25 24 22 20 20 19 17 18 21 20 19 18 16 18 19 19 20 21 22 25 31 38 42 44 50 55 56 58 58 57 56 59 60 61 74 91 96 95 98 98 98 101 100 100 102 101 99 99 98 96 90 82 79 86 90 88 87 89 91 95 94 95 102 101 91 88 92 89 75 60 55 51 43 44 50 53 58 65 68 77 91 96 98 99 98
16 17 18 18 17 17 18 19 18 16 17 18 18 18 18 17 17 17 15 14 14 14 13 15 18 22 26 34 42 48 51 50 50 51 53 56 54 59 75 89 96 101 101 99 98 99 102 103 99 97 99 98 91 82 74 74 78 79 77 76 80 86 87 89 96 100 95 89 88 81 69 64 65 63 53 45 47 53 59 67 72 76 83 88 91 98 103 100
14 14 14 14 15 15 15 17 18 17 16 17 19 19 19 20 19 19 18 17 16 15 12 11 12 12 14 18 23 29 33 34 38 41 45 51 52 52 57 64 73 82 83 80 79 81 85 87 83 81 81 81 81 78 74 75 76 73 72 73 76 83 87 94 102 97 89 91 86 70 68 76 74 64 55 50 49 49 54 66 74 72 69 72 83 95 98 95
14 14 14 14 15 15 14 15 15 15 16 18 19 19 20 20 20 20 20 20 18 17 16 16 15 14 13 12 13 16 19 22 24 28 34 39 40 44 48 49 51 54 54 55 57 61 70 75 72 71 72 73 76 77 73 74 75 70 69 69 68 73 83 94 97 87 82 88 85 79 86 86 75 68 63 54 50 53 56 62 69 67 61 68 83 90 86 82
15 15 15 15 15 14 14 14 14 14 15 16 17 17 17 16 16 17 17 19 19 19 20 21 19 18 18 16 16 18 19 23 24 23 25 28 29 31 34 35 37 38 40 46 50 61 80 87 80 79 83 82 82 81 78 76 77 73 69 69 73 81 87 89 84 76 78 89 94 96 97 89 79 71 60 50 57 70 74 70 65 63 64 75 85 83 74 73
14 14 14 14 14 14 14 14 14 14 14 14 15 15 15 14 15 15 15 20 25 25 26 28 27 30 35 35 35 38 40 43 44 38 33 36 38 34 31 31 31 35 46 57 65 78 94 99 94 94 97 94 89 90 91 89 89 90 85 82 87 92 84 73 68 68 77 88 95 100 102 92 72 56 52 62 80 93 93 81 66 58 61 73 80 75 70 74
13 13 13 13 12 13 13 12 13 12 12 13 13 12 12 11 12 12 12 16 20 20 22 25 27 31 36 37 38 44 52 56 54 48 47 49 45 41 48 56 55 59 70 79 86 94 99 101 99 99 102 97 88 89 98 98 98 103 101 91 83 75 66 63 69 75 79 79 78 80 82 71 52 47 61 76 85 92 92 83 71 63 61 67 68 64 66 75
11 10 10 11 11 11 10 10 10 10 10 11 10 9 10 9 9 10 10 10 11 11 11 14 15 16 19 22 25 30 38 45 46 49 61 73 70 66 74 79 74 77 88 92 96 100 100 97 93 92 98 94 83 85 94 100 102 102 100 93 83 75 74 78 80 75 67 61 59 58 54 45 40 46 57 61 66 75 78 74 69 64 61 62 61 58 63 71
Wind_Speed
22 22 22 22 22 21 21 21 21 21 21 21 21 20 20 20 20 20 20 19 19 19 19 19 19 19 18 18 18 18 17 17 17 17 16 17 17 18 18 18 19 19 19 19 19 20 19 19 18 19 19 19 19 19 19 18 18 18 17 16 17 16 16 15 14 15 15 14 13 12 14 15 15 15 16 18 18 18 18 18 17 16 18 17 16 16 16 17
25 25 24 24 24 24 24 23 23 23 23 23 23 23 23 23 23 22 22 22 22 22 22 22 22 22 22 22 22 21 21 21 21 21 20 20 20 20 20 20 20 21 21 21 22 22 21 21 21 21 21 21 21 21 22 21 20 20 19 19 19 18 18 19 17 18 19 19 17 16 15 16 17 17 17 19 18 19 19 18 18 19 20 19 18 17 16 16
28 28 27 27 27 27 26 26 26 26 25 25 25 25 25 25 25 25 25 25 25 25 25 24 24 24 24 24 24 24 24 24 25 26 25 24 24 24 24 23 23 24 24 24 24 24 23 23 23 23 23 23 23 23 24 24 23 23 22 22 22 22 20 21 21 20 22 23 22 21 19 18 20 19 19 20 20 21 21 19 18 20 22 20 19 18 17 17
30 30 30 30 29 29 29 29 28 28 28 27 27 27 28 28 28 28 28 28 28 27 27 27 27 27 27 27 27 27 27 27 28 28 28 28 28 28 27 27 27 27 27 27 27 27 26 26 26 26 25 26 25 25 26 26 26 25 25 25 25 25 23 24 25 24 23 25 25 25 24 22 23 22 21 22 22 23 24 21 19 20 22 22 20 19 19 19
31 31 31 31 31 31 31 30 30 30 30 29 29 29 30 30 30 30 30 30 30 30 30 30 30 29 29 29 29 29 29 29 30 30 30 30 30 30 30 30 30 31 31 31 31 30 30 30 30 30 29 29 29 28 28 28 28 28 27 28 28 28 26 26 28 27 27 27 28 28 27 26 26 25 24 24 23 25 26 23 21 20 22 23 22 21 21 21
31 31 31 31 31 31 31 31 31 31 31 31 31 31 31 31 31 31 32 32 32 32 32 32 33 32 32 31 31 31 30 31 32 32 32 32 32 33 32 32 32 33 33 33 33 33 33 34 34 34 33 33 33 32 31 31 31 30 29 31 31 31 30 29 31 30 30 30 31 32 31 30 30 29 27 26 24 26 28 27 24 23 23 23 22 22 22 22
30 30 30 30 30 30 30 30 30 30 31 31 31 31 32 32 32 32 33 33 33 34 34 34 34 34 34 34 33 32 31 33 34 33 33 34 34 34 34 34 34 34 34 34 35 35 35 36 36 36 36 36 36 36 35 35 35 33 32 33 33 33 33 33 34 34 34 34 35 36 34 33 34 34 30 27 25 28 30 30 28 27 26 26 25 24 24 24
30 30 30 30 30 30 30 30 30 30 30 30 30 31 31 31 32 32 32 33 33 34 34 34 35 35 36 35 35 33 32 34 36 35 35 35 35 35 35 35 36 36 36 36 36 36 37 37 38 38 37 37 37 37 38 37 37 36 35 35 35 35 35 36 36 36 37 37 37 39 37 36 37 38 34 28 28 31 32 32 31 31 30 29 29 28 27 27
31 31 31 31 30 30 30 30 30 30 30 30 30 31 31 31 31 32 32 32 32 33 33 33 33 34 34 34 34 31 32 35 35 36 35 35 36 36 36 36 37 37 37 37 37 38 37 38 39 39 38 38 38 37 39 39 38 38 38 38 36 36 37 36 36 37 39 39 38 39 38 39 40 41 37 30 32 35 34 34 34 34 32 31 32 32 31 30
31 31 31 31 31 31 31 31 31 32 32 32 32 32 33 32 33 33 33 33 34 34 34 34 34 35 34 34 33 30 32 35 35 35 35 35 36 36 36 36 37 37 37 38 38 38 38 39 39 40 40 39 38 38 39 40 39 39 40 39 37 38 38 37 38 39 41 41 40 40 40 40 41 42 38 33 36 38 36 36 35 36 35 34 34 33 34 33
32 32 33 32 33 33 33 33 34 34 34 34 35 35 35 35 35 35 36 36 36 36 37 37 37 38 37 36 34 32 34 36 35 35 35 36 36 36 36 36 36 37 37 37 37 38 39 39 40 41 41 40 39 38 39 40 40 41 42 41 38 40 39 37 39 41 42 42 41 43 43 40 41 41 39 37 39 40 38 36 35 37 37 36 36 35 35 35
35 35 35 35 36 35 35 35 35 36 36 36 37 37 38 38 38 38 38 39 39 39 39 40 40 40 40 37 34 34 35 36 37 37 37 37 37 36 36 36 36 36 37 37 37 38 39 40 40 41 41 41 39 39 39 39 41 42 43 43 39 40 39 36 39 41 42 42 41 44 45 41 39 38 37 39 41 41 39 36 35 36 37 37 37 37 37 36
37 38 38 38 38 38 38 38 38 38 38 38 38 39 39 39 39 40 40 41 41 41 41 42 42 42 42 38 33 35 36 36 37 38 39 39 38 37 37 36 36 36 36 36 37 38 38 39 40 41 41 41 40 39 40 40 42 42 44 46 41 40 39 34 37 41 41 41 40 43 46 41 36 36 35 37 40 41 40 38 35 35 35 36 37 37 37 36
38 39 39 39 39 39 39 39 38 38 38 39 40 41 41 41 41 41 41 42 42 42 43 43 43 44 44 39 34 35 37 37 38 39 40 41 39 38 38 37 37 37 36 36 37 38 38 39 41 41 41 40 39 40 41 40 41 42 44 44 41 42 41 35 36 40 40 40 38 41 46 40 33 33 33 35 38 39 39 37 35 33 32 33 35 35 35 35
39 39 39 40 39 39 39 39 38 37 38 39 40 42 42 43 43 43 43 43 43 44 44 45 45 46 46 41 35 36 37 37 38 39 41 41 40 39 38 38 38 37 37 37 38 39 39 40 42 42 41 40 39 40 41 41 40 40 43 42 40 44 44 36 34 37 39 40 39 40 44 39 30 28 29 32 36 37 38 37 34 31 30 30 32 33 34 33
40 40 41 41 40 39 39 39 39 39 40 41 42 43 43 44 45 45 46 45 45 45 46 47 46 47 48 42 38 38 38 38 40 40 40 40 39 39 38 38 38 38 38 39 39 40 41 42 44 43 42 40 39 41 43 42 38 37 41 43 42 44 45 39 34 35 38 41 41 42 45 39 28 25 27 29 33 35 37 36 34 31 29 30 30 32 32 31
42 42 42 42 41 40 40 40 41 42 42 43 44 45 45 46 46 46 47 47 47 47 47 48 47 49 49 44 41 39 38 40 41 40 41 40 39 38 38 38 38 39 39 40 40 41 42 45 46 46 43 40 39 42 45 43 38 36 40 45 45 45 45 42 37 37 39 42 44 46 48 43 32 29 28 28 31 34 35 35 33 32 30 30 30 31 31 31
44 44 44 44 44 43 43 43 44 44 45 45 45 46 47 48 48 47 47 48 48 48 49 50 49 51 50 45 44 42 39 40 41 41 41 40 39 38 38 38 38 39 40 41 41 42 45 47 49 49 45 40 39 43 46 43 39 39 42 46 48 46 45 42 39 40 42 45 47 49 50 47 40 34 31 28 31 34 35 34 33 32 31 31 30 29 30 31
46 46 46 46 46 46 46 46 47 47 46 46 45 45 46 48 49 49 49 49 49 48 50 51 51 53 51 47 46 45 42 41 42 42 41 40 40 40 40 40 39 40 40 40 41 44 46 49 52 52 45 40 40 44 47 45 43 45 46 48 49 49 48 43 39 40 44 49 51 51 52 51 45 39 33 31 31 32 32 34 34 33 31 31 31 29 29 32
47 47 48 49 49 49 49 49 49 49 47 46 45 45 45 46 47 48 50 50 50 50 50 51 52 53 52 50 49 47 45 44 44 43 42 42 43 43 42 42 42 43 42 41 43 46 48 50 52 49 43 41 43 47 49 48 48 49 50 50 49 51 51 44 40 41 44 52 55 52 54 55 49 42 36 34 34 31 30 32 33 32 32 32 31 30 31 32
49 49 49 50 51 51 51 51 51 50 48 46 45 45 45 46 47 48 49 49 50 50 50 51 54 54 51 51 51 50 48 48 47 44 43 44 45 46 45 44 46 46 44 44 48 49 49 51 51 46 42 42 45 47 49 50 51 52 53 52 51 53 52 48 45 43 45 53 56 54 57 58 52 45 39 37 36 32 31 32 31 30 31 31 30 31 33 34
51 51 51 51 52 52 52 52 52 50 48 47 45 45 46 46 48 48 50 50 48 48 50 51 53 54 53 53 52 51 51 50 47 45 45 46 46 47 46 47 48 48 46 49 50 50 52 52 49 45 44 44 45 46 48 51 53 56 56 55 55 54 54 54 50 46 48 55 58 57 59 61 56 48 42 39 38 35 31 31 30 29 31 31 30 31 33 35
53 53 52 53 53 53 53 53 52 50 48 48 48 48 48 48 49 50 51 53 50 47 48 50 51 53 54 55 54 53 53 50 48 48 48 48 47 47 48 48 49 49 50 50 49 50 53 52 47 46 47 46 45 45 47 50 53 56 56 57 58 55 55 58 54 49 52 57 59 59 62 64 58 52 45 40 40 36 32 31 30 31 32 32 32 31 32 33
54 54 54 54 53 53 52 52 51 50 50 51 52 52 52 51 51 52 53 54 54 49 47 48 50 52 52 53 54 54 53 51 51 51 49 48 49 49 49 48 50 51 50 48 48 51 54 51 48 49 50 48 46 45 46 48 51 53 54 56 57 55 55 58 57 54 56 59 59 61 65 64 58 54 48 42 42 39 35 34 33 34 34 33 32 32 33 33
54 54 54 53 52 51 50 51 51 51 52 52 53 53 54 54 53 54 54 55 56 52 49 50 50 50 50 51 51 51 52 52 51 50 49 48 48 48 48 49 51 51 49 47 48 53 54 49 47 49 50 48 47 46 45 46 48 50 52 52 53 55 56 57 57 58 61 62 60 61 67 65 57 54 50 45 45 42 38 37 35 36 38 36 33 32 33 33
55 54 53 51 51 51 51 52 53 53 53 53 53 53 53 54 53 54 54 55 56 54 53 54 51 47 48 49 49 49 50 51 49 48 47 47 45 45 47 48 49 49 48 47 49 54 53 46 45 46 47 48 48 49 46 44 47 51 51 49 49 53 55 56 56 58 62 65 64 64 68 68 60 53 51 49 48 43 38 37 37 37 39 38 36 34 33 33
55 53 52 51 51 52 53 54 54 54 54 54 54 53 54 53 53 52 51 52 53 52 54 56 52 47 46 46 47 48 49 48 47 46 46 44 43 44 46 47 47 46 46 47 50 53 50 45 45 45 45 49 50 48 45 44 49 52 50 49 50 51 53 55 56 59 61 63 65 67 69 70 63 52 49 52 52 47 40 37 37 37 38 38 37 37 35 34
54 53 52 52 52 53 54 55 56 55 55 55 54 55 55 54 53 51 50 50 51 52 54 54 52 49 48 48 48 47 47 47 46 47 46 44 44 44 45 45 45 45 45 48 51 51 48 46 46 46 49 50 48 45 44 46 50 51 50 51 51 51 52 53 55 58 60 61 61 64 67 69 64 54 52 55 54 48 42 39 37 36 38 38 35 37 37 35
54 53 53 53 53 54 55 56 57 57 56 56 56 56 55 55 53 50 49 52 53 54 54 53 52 52 51 50 50 49 48 48 48 49 48 46 45 46 47 46 46 46 45 48 50 50 48 47 46 49 51 50 47 45 46 48 50 50 51 52 53 53 53 54 55 56 59 60 59 61 64 65 62 56 53 54 51 48 46 44 40 37 40 39 34 33 36 37
54 53 53 53 54 56 56 57 59 59 58 57 56 56 55 54 53 51 52 54 54 54 54 54 55 55 53 52 52 51 51 51 50 50 50 49 48 48 49 48 48 49 48 50 51 50 47 47 49 51 50 49 49 49 49 50 51 51 51 53 54 56 55 55 57 56 59 60 58 58 60 61 60 56 53 53 51 50 49 46 44 42 43 42 36 32 36 40
53 54 54 53 53 54 55 56 58 58 58 57 56 55 54 54 53 54 57 57 55 55 55 56 58 57 56 55 54 55 55 55 54 53 53 53 51 50 51 51 52 51 51 52 52 49 48 49 51 50 49 51 51 51 51 52 52 51 51 53 53 55 56 57 59 58 60 60 58 57 57 57 58 55 55 56 54 53 53 51 49 47 44 46 45 40 38 39
52 53 54 54 54 54 55 57 58 58 58 58 57 56 54 55 54 56 58 57 56 57 55 55 57 56 57 57 55 56 56 56 56 56 56 56 55 54 53 53 54 55 55 54 53 52 51 51 51 52 53 52 52 53 54 54 52 50 52 53 53 54 58 60 60 59 60 60 58 58 58 58 56 53 56 57 54 55 57 56 55 52 47 48 50 49 45 42
54 53 52 53 55 56 56 57 57 56 57 58 58 58 58 59 57 56 57 55 56 58 57 57 58 57 57 57 57 58 58 58 58 57 57 57 58 58 57 55 55 55 55 54 54 55 55 53 52 55 54 51 51 54 54 52 50 50 52 52 51 54 59 59 58 59 60 60 58 57 59 59 54 53 55 55 54 56 57 58 58 56 52 51 53 54 53 49
58 57 55 54 58 59 57 58 57 55 54 54 54 55 59 61 59 58 59 59 59 60 60 61 61 61 62 61 61 60 60 60 59 59 59 59 60 60 60 58 56 55 54 54 55 55 57 55 52 53 53 51 53 53 50 49 50 52 53 51 53 57 58 54 54 58 61 60 59 60 62 61 56 55 56 56 58 58 58 58 58 57 56 56 56 56 55 51
61 61 59 59 60 61 60 60 59 58 58 58 57 57 60 62 60 59 62 63 61 60 61 62 61 63 64 63 63 63 63 64 63 62 61 61 61 61 61 61 59 58 56 57 57 56 59 59 55 55 56 56 56 55 51 51 54 55 54 55 57 56 52 52 54 56 59 61 62 63 65 64 60 59 59 59 61 61 59 58 57 58 58 57 56 54 53 52
62 63 63 63 63 63 62 62 61 60 61 61 61 62 64 64 61 62 65 64 61 60 61 62 62 64 66 66 66 65 65 66 66 66 65 65 64 63 63 63 63 62 61 61 60 59 61 62 59 59 61 59 58 58 57 59 61 61 61 61 58 53 51 54 57 56 57 61 63 64 67 66 63 62 61 60 61 61 59 58 59 58 56 55 55 53 53 53
65 65 65 65 66 66 65 64 64 63 63 65 67 67 67 66 63 62 63 63 62 61 61 60 61 63 65 67 67 65 65 65 67 68 68 68 68 66 66 66 66 66 66 65 63 61 61 63 63 64 65 63 62 62 61 62 66 67 66 63 59 57 57 59 61 60 59 63 65 65 67 67 66 64 62 62 61 60 60 60 60 59 56 56 55 53 53 52
67 67 67 67 67 68 68 68 68 67 69 72 74 73 71 69 64 61 60 58 59 60 60 60 60 60 61 62 63 63 63 64 65 65 65 66 66 65 65 66 67 68 67 64 64 63 61 61 64 67 68 66 64 64 64 64 66 66 65 63 62 64 64 64 64 63 60 62 66 68 69 69 68 65 62 63 62 62 65 65 61 59 58 58 56 55 54 52
68 69 69 68 69 70 70 70 71 70 72 75 77 76 74 72 69 65 63 62 60 61 61 61 61 62 62 61 60 59 60 61 62 61 61 62 61 61 60 60 63 64 64 62 63 65 61 57 59 65 70 70 68 68 69 68 67 66 64 65 65 66 66 65 64 62 61 63 65 68 71 69 66 64 61 62 63 63 67 68 63 59 58 58 58 56 55 54
70 70 70 70 71 72 72 73 73 73 75 76 77 77 76 74 72 70 70 69 69 69 70 70 69 70 70 68 66 63 61 62 63 63 63 62 60 58 55 56 61 64 66 68 68 68 64 60 60 63 67 72 73 72 70 68 67 66 65 65 65 65 65 64 65 65 66 67 66 67 70 67 62 62 61 62 64 64 65 67 64 60 60 59 58 58 57 57
72 73 72 70 72 74 74 75 75 75 76 76 76 77 76 75 73 71 72 75 76 77 79 80 80 80 80 78 77 76 74 73 72 72 73 70 66 64 61 61 68 71 72 75 75 71 67 65 64 63 62 64 66 66 66 65 66 66 65 65 64 65 66 65 68 69 68 69 67 65 67 64 58 59 61 60 63 62 62 65 64 60 60 59 59 61 62 60
75 75 73 72 73 74 74 75 76 76 77 77 76 75 75 75 74 72 73 76 78 80 82 84 84 84 85 85 84 86 87 86 84 83 84 82 79 78 74 72 73 74 73 75 77 76 72 68 67 64 61 60 59 58 60 61 62 64 66 67 66 66 68 69 71 69 66 66 65 64 68 65 58 59 62 61 63 63 62 64 63 58 58 59 60 64 65 62
75 75 74 73 74 75 75 76 77 77 77 76 75 74 75 75 75 74 74 75 78 80 82 83 85 85 86 87 87 88 89 90 89 87 87 86 82 77 72 67 64 63 64 68 69 68 66 64 63 61 58 56 52 49 48 47 50 56 60 62 63 65 66 67 68 67 66 67 65 66 72 70 60 59 63 62 62 64 65 64 60 54 55 58 62 65 66 64
74 75 75 74 75 76 77 78 77 77 77 75 75 76 76 76 76 74 73 74 76 78 80 81 82 83 85 85 86 87 88 90 91 89 86 85 82 74 64 58 54 51 53 57 60 59 61 61 59 55 54 51 50 50 48 48 53 61 63 61 59 57 57 59 62 64 67 67 64 69 75 69 58 56 59 58 56 58 59 59 56 53 54 58 61 62 63 64
75 76 76 76 77 78 79 78 78 79 79 78 78 78 77 78 77 74 73 74 75 77 79 80 80 81 82 83 84 86 87 88 89 89 87 86 83 77 67 58 54 53 55 61 65 66 68 67 63 62 63 64 67 69 70 72 76 79 79 75 68 61 59 61 61 63 67 67 66 70 72 65 58 54 53 52 53 53 52 53 55 56 58 59 59 60 61 63
76 76 76 77 78 80 80 79 79 80 80 79 80 80 79 79 78 76 75 76 76 76 78 79 79 79 81 82 83 84 85 86 86 88 88 86 84 81 75 67 63 63 67 75 78 76 75 76 77 78 79 80 82 83 83 84 86 85 84 81 78 73 72 73 71 71 73 72 71 73 70 66 62 57 52 49 49 51 53 55 57 59 60 59 60 62 64 66
76 76 76 76 78 79 81 81 80 80 80 79 80 81 80 79 79 78 78 78 77 76 78 79 79 79 80 81 82 84 85 85 86 88 88 87 85 83 82 79 77 77 81 86 88 85 84 87 89 91 91 89 86 83 81 80 81 81 79 78 77 74 74 77 78 77 75 74 76 75 70 68 66 61 58 54 50 51 55 58 60 62 62 62 62 62 64 65
75 75 75 76 78 78 80 81 80 79 78 77 78 79 79 80 80 80 79 78 77 77 78 79 79 79 79 79 80 83 83 84 85 87 87 87 86 85 85 85 86 86 86 87 86 84 83 85 86 87 88 87 83 80 78 76 77 78 77 77 76 73 70 72 74 74 72 74 77 73 69 71 70 66 63 59 56 56 56 57 59 62 63 62 61 58 56 56
73 73 73 75 76 76 76 77 77 77 76 75 76 77 78 79 80 79 79 78 78 78 78 80 80 79 79 79 80 81 81 81 82 83 83 84 84 84 85 86 86 86 85 84 83 79 77 77 77 77 79 79 77 75 74 74 75 76 76 75 73 70 67 68 71 72 72 74 75 71 72 75 72 67 65 61 59 60 58 56 57 59 58 56 55 53 50 50
72 72 73 73 74 74 73 73 73 73 74 74 75 76 76 76 75 75 75 75 75 75 76 77 78 78 76 76 77 77 76 76 77 78 79 79 79 80 81 82 81 80 79 78 76 73 72 72 70 69 72 74 71 69 68 67 67 66 65 65 65 65 68 71 73 71 71 74 73 72 76 78 72 69 67 63 59 58 58 56 54 53 52 52 54 55 53 56
72 72 73 73 73 72 72 72 72 72 73 73 74 74 73 72 72 72 73 73 73 74 75 76 77 78 77 77 77 75 73 74 76 76 76 76 77 77 76 76 75 73 72 72 70 69 69 70 68 67 70 73 70 67 67 64 62 63 61 58 58 62 66 67 65 62 64 68 69 71 76 77 73 69 67 64 62 60 59 57 56 56 59 62 66 66 65 68
71 71 72 72 73 72 71 71 71 72 73 72 71 72 70 70 71 72 73 74 73 73 74 75 77 79 80 80 79 78 77 77 77 76 73 71 72 72 71 72 72 72 72 71 71 71 71 72 72 72 75 77 74 72 72 68 69 71 65 57 57 60 61 61 60 62 65 70 73 76 79 77 72 70 69 69 69 68 68 67 68 70 73 74 75 74 73 75
Wind_Direction
264 266 268 269 271 272 273 274 275 277 278 279 280 281 282 283 284 285 286 287 288 288 289 290 291 292 292 293 293 293 293 291 288 287 287 287 288 289 290 291 292 292 293 294 295 296 296 296 297 297 298 299 300 302 302 303 304 305 307 308 308 310 311 313 317 313 311 314 318 322 324 323 322 322 318 319 321 320 320 324 334 327 319 325 323 317 313 312
266 267 268 269 270 271 272 273 273 274 275 276 277 278 279 280 281 282 283 284 285 285 286 287 288 289 290 291 292 292 293 293 291 290 290 289 288 288 288 288 288 288 287 288 289 290 290 291 291 292 292 293 294 296 297 298 299 300 302 304 303 305 307 309 311 311 312 313 315 317 319 319 317 318 317 316 316 315 314 320 329 325 320 325 323 318 317 315
268 269 269 270 271 271 272 273 273 273 274 275 275 276 276 277 278 278 279 280 281 282 283 284 285 286 287 288 289 291 292 293 293 292 293 292 291 292 290 289 288 287 286 285 285 286 286 287 288 288 289 290 291 292 292 293 294 296 299 300 299 299 303 306 306 308 310 310 313 312 311 312 309 311 314 312 314 310 308 315 322 320 318 323 322 317 317 316
269 270 271 272 272 273 273 273 274 274 274 274 274 275 275 275 276 276 277 278 278 279 280 281 281 282 284 285 286 288 290 291 292 292 292 292 293 293 292 291 290 289 288 286 285 285 285 285 285 286 287 288 288 289 290 290 291 293 296 298 297 297 301 303 302 304 306 306 307 307 306 307 304 306 307 307 311 307 304 310 314 314 313 317 318 314 314 314
270 271 271 272 273 274 274 275 275 275 275 275 275 276 275 276 276 276 276 276 277 278 278 279 280 280 281 282 284 286 287 289 289 288 289 291 292 291 291 292 291 291 290 289 288 287 287 286 286 286 286 287 286 287 289 290 290 291 294 295 294 295 298 300 300 302 304 303 303 302 303 303 301 302 301 303 307 301 300 305 307 307 307 310 312 309 309 310
269 270 271 272 273 273 274 275 276 276 277 277 277 277 277 277 277 276 276 276 276 276 277 278 278 279 280 281 282 284 286 286 286 286 288 289 290 290 291 291 291 291 290 289 289 289 289 288 288 288 287 288 288 288 289 290 290 291 293 292 292 293 294 295 295 298 300 300 299 298 300 301 299 298 299 303 303 298 297 300 301 300 300 302 303 301 302 304
269 270 270 271 272 273 274 274 275 276 277 278 279 279 280 280 279 279 278 278 277 277 277 277 277 278 278 279 280 282 285 285 284 285 287 288 289 290 290 290 290 290 290 289 289 289 289 289 289 288 289 290 290 290 290 290 290 291 291 290 290 291 292 292 292 294 295 297 296 296 298 298 297 296 298 302 299 294 295 297 298 296 294 296 295 293 294 297
268 268 269 269 270 271 272 272 273 274 275 277 278 279 280 280 281 281 281 280 280 279 279 278 278 278 278 279 279 282 284 284 284 285 286 287 288 288 288 289 288 289 289 289 289 288 288 288 288 288 289 289 289 291 290 289 289 290 289 288 290 291 291 292 293 294 294 295 295 295 295 295 294 293 296 300 294 291 293 295 295 294 294 294 293 292 290 291
267 268 268 268 268 269 269 270 271 271 273 274 275 276 277 278 279 280 281 281 281 281 281 281 281 280 280 281 281 284 285 283 285 286 286 287 286 286 287 287 287 288 288 288 288 288 288 288 288 288 288 288 289 290 290 289 290 289 288 288 289 290 291 292 294 294 292 292 293 293 293 292 292 292 294 296 291 291 293 293 292 292 293 292 291 292 290 289
268 268 269 269 269 269 269 269 269 270 270 271 273 273 274 275 276 277 278 279 280 280 281 281 281 281 282 282 283 286 285 284 286 287 288 287 286 286 286 286 286 286 286 286 287 287 287 287 288 288 288 288 289 289 289 290 290 289 289 289 290 289 290 293 294 293 291 292 293 291 290 290 290 291 294 294 290 291 292 291 290 290 290 289 289 290 289 288
267 268 268 269 269 269 269 270 270 270 270 271 271 271 272 272 273 274 275 276 276 277 278 279 279 279 279 280 283 285 283 285 288 288 288 287 286 286 286 286 286 285 285 285 286 286 286 286 287 287 288 288 288 288 288 290 290 290 289 289 290 290 291 294 293 292 292 294 293 290 288 288 289 292 293 291 289 290 289 289 289 289 289 289 289 288 287 286
266 267 268 268 268 269 269 269 270 270 271 271 271 271 271 271 272 272 272 273 273 273 274 275 275 276 277 278 281 282 282 285 287 288 288 287 286 286 286 286 286 286 285 285 285 285 285 286 287 287 288 287 288 288 287 289 289 289 290 289 289 290 291 293 291 291 293 294 293 290 287 288 290 291 291 290 288 287 287 287 287 287 289 289 289 287 285 285
265 266 267 267 268 268 268 269 269 270 271 271 272 272 272 272 272 272 272 272 272 272 272 272 273 273 274 276 278 280 282 284 284 286 286 286 287 288 288 288 288 287 286 286 286 286 286 287 287 287 287 288 290 289 288 289 289 290 289 289 291 290 288 290 290 292 294 293 292 289 287 289 290 289 289 287 286 286 286 287 287 287 288 288 288 287 285 285
264 265 266 266 267 267 268 269 269 271 272 272 272 272 272 272 272 272 272 272 272 272 272 271 271 271 272 273 275 277 280 281 282 283 283 283 285 287 289 289 289 288 288 288 288 288 287 288 288 288 289 290 291 290 291 290 289 291 290 291 294 290 288 291 292 294 295 292 291 288 287 289 289 286 286 284 283 285 286 287 287 287 287 288 288 287 286 285
263 264 264 265 266 266 267 269 270 272 273 274 274 274 273 273 273 272 272 272 272 272 272 271 271 271 271 272 273 275 276 278 280 280 281 283 285 286 288 288 289 290 290 290 290 290 290 290 290 290 290 291 293 293 292 290 290 293 293 293 292 289 290 293 294 295 294 292 291 288 286 290 291 283 281 282 283 284 285 286 286 287 288 288 287 286 286 285
263 264 264 264 264 265 266 269 271 273 274 274 274 274 274 274 274 273 272 272 272 272 272 271 271 271 271 272 272 272 274 275 276 278 280 282 284 285 285 287 288 289 289 289 290 291 291 291 290 289 289 291 294 295 293 292 295 297 294 291 288 287 291 294 295 293 292 291 290 288 287 291 295 287 280 280 283 284 284 285 286 288 290 289 289 288 287 286
264 265 264 264 264 264 266 269 273 276 276 275 273 273 273 273 273 273 273 272 272 272 272 271 272 271 271 273 272 271 272 273 274 276 278 279 282 283 284 286 287 288 288 288 289 290 290 289 288 288 288 291 295 296 294 295 298 296 289 287 287 288 290 293 295 293 291 290 289 288 288 292 297 293 288 287 286 284 283 286 287 288 290 291 290 289 288 286
266 266 265 264 264 265 268 271 276 279 278 276 275 273 271 271 271 272 272 272 272 272 271 271 272 272 272 273 273 272 270 270 272 273 274 277 280 282 284 286 287 288 288 288 289 290 288 287 285 285 287 293 298 296 294 295 295 290 286 287 287 289 289 291 295 295 293 291 289 289 291 294 295 294 295 295 291 287 286 289 288 287 289 291 290 289 288 284
267 266 266 265 265 267 269 273 277 279 279 277 277 275 273 272 271 271 271 271 271 271 271 271 271 273 274 274 273 273 271 270 270 270 273 275 277 279 282 283 284 285 285 288 290 288 285 284 282 282 289 297 297 293 291 291 290 288 287 287 288 289 289 290 294 294 294 292 290 291 292 292 294 295 295 293 291 289 290 291 289 289 290 290 292 293 288 282
267 267 266 266 267 269 271 274 277 279 278 277 277 277 276 275 273 272 272 271 270 270 270 271 272 271 273 274 273 272 272 271 269 270 272 274 275 277 279 281 281 281 283 287 286 283 283 282 281 286 295 298 292 287 287 288 287 287 286 286 287 288 288 291 292 290 290 289 288 289 289 289 292 294 293 290 289 289 291 289 288 290 290 290 292 292 287 282
267 267 267 268 269 270 272 274 276 277 276 275 276 276 277 277 277 276 274 273 272 271 271 271 272 272 272 273 272 272 272 270 270 271 272 273 274 275 277 279 280 281 283 282 280 281 282 281 283 292 297 293 287 285 286 286 285 285 285 286 286 286 288 290 288 287 287 285 285 287 287 288 291 292 290 289 288 289 290 288 288 290 287 288 290 289 288 287
267 268 268 269 270 271 273 274 275 274 273 273 274 275 275 276 276 277 276 275 274 273 273 272 272 274 274 272 272 272 272 271 272 272 272 271 272 275 276 276 277 280 280 277 278 282 282 280 286 292 291 287 285 286 285 284 283 283 284 286 285 286 289 288 288 289 287 284 285 286 287 287 289 288 287 288 290 290 289 288 289 288 286 288 291 292 291 290
267 267 268 269 270 271 271 272 272 271 271 272 273 274 274 273 274 275 276 276 275 273 273 274 274 274 274 274 274 273 273 274 275 273 273 273 274 275 275 275 276 277 276 276 279 282 280 282 287 287 285 284 284 285 285 283 282 282 284 285 285 288 290 288 289 290 286 285 285 286 286 285 286 287 287 289 290 290 291 291 288 286 285 288 290 291 289 287
268 269 270 270 270 270 269 268 268 268 269 271 272 273 273 272 272 272 273 275 276 274 273 273 273 273 274 274 275 275 276 276 275 274 275 276 276 275 275 276 275 274 274 276 279 278 277 280 283 282 282 283 283 284 284 282 281 282 283 283 285 288 289 288 289 289 286 284 284 287 286 284 285 287 288 289 289 290 294 293 289 286 287 287 287 288 286 284
268 269 270 270 270 269 268 267 266 267 268 270 271 271 272 272 272 271 271 273 276 277 274 271 270 272 274 275 276 277 278 278 277 277 277 276 275 275 275 274 273 273 275 276 275 274 274 276 279 279 281 283 283 283 282 281 283 283 282 281 284 285 285 285 287 287 285 284 284 286 285 284 286 287 289 291 289 290 293 291 288 289 290 290 287 285 284 283
267 268 268 268 269 269 269 268 268 269 270 270 271 271 272 273 273 273 273 274 276 278 276 273 271 272 274 275 277 277 277 279 280 280 279 277 276 275 273 271 271 272 273 273 272 272 274 276 276 276 279 281 280 280 281 284 284 282 282 282 281 280 281 282 282 283 283 284 285 284 283 285 286 288 292 294 291 290 289 289 292 293 292 291 290 287 285 283
266 267 267 268 268 269 269 270 270 271 271 271 272 273 274 274 274 275 275 275 275 277 277 277 278 278 277 277 276 276 276 278 280 279 278 278 276 274 272 272 272 272 272 271 270 272 276 277 275 274 275 275 276 280 285 285 281 281 284 284 281 279 278 278 279 279 280 282 283 283 282 285 288 292 296 294 292 291 292 294 295 295 293 292 292 291 289 286
265 266 266 267 267 268 269 270 271 271 271 271 272 274 274 275 275 275 277 276 274 275 277 280 284 285 282 280 278 277 278 278 278 277 276 275 275 274 274 274 273 272 272 270 270 273 276 275 274 274 273 273 276 281 282 280 279 282 284 282 281 280 280 279 278 278 279 280 281 281 281 284 290 296 296 292 291 293 298 298 297 297 296 294 294 294 293 291
263 264 265 266 267 268 268 269 271 270 271 272 273 273 273 273 274 275 275 274 274 276 280 284 286 285 283 282 281 280 279 277 276 276 276 274 273 273 273 273 273 273 271 271 271 272 273 274 273 272 273 276 281 281 279 278 280 281 281 281 281 281 281 281 279 279 278 278 279 281 282 285 292 294 291 288 290 295 298 297 298 299 296 294 295 296 295 293
263 265 266 267 267 267 268 269 270 271 271 272 273 274 274 272 273 274 272 272 275 279 282 284 283 283 283 283 282 281 279 277 277 277 276 275 274 273 273 273 274 273 272 271 270 271 274 273 271 272 275 279 281 280 280 280 281 281 281 281 281 280 280 279 278 278 276 276 278 281 284 288 291 291 290 289 292 294 295 296 298 298 295 295 296 294 292 292
263 265 266 267 267 267 267 268 270 271 271 271 272 274 275 275 275 272 271 275 279 280 280 281 281 282 282 281 280 280 280 280 280 279 278 276 274 273 274 274 275 275 274 272 271 273 273 271 271 274 276 277 278 279 280 280 281 283 283 282 280 279 278 276 275 274 274 276 281 283 285 286 285 286 289 291 294 295 296 296 295 294 295 297 297 294 290 290
263 265 266 267 267 267 267 268 268 270 271 272 272 273 275 277 275 272 273 276 278 278 279 280 280 279 279 278 279 280 280 280 280 279 278 278 276 275 275 274 275 276 276 275 276 275 273 271 272 272 272 275 279 281 280 280 282 282 280 279 278 277 276 274 274 273 274 278 282 285 286 283 281 284 287 289 293 294 295 295 294 295 297 298 298 296 294 292
264 265 266 267 268 269 269 268 267 269 271 272 273 273 273 273 273 275 276 275 275 277 278 277 277 277 276 277 277 278 278 279 279 279 278 277 277 278 276 275 275 276 277 277 277 276 274 271 271 272 274 278 281 281 280 279 279 277 276 275 274 274 274 273 274 276 277 279 281 282 280 279 283 287 288 290 291 290 290 292 294 298 299 299 298 297 297 298
265 266 267 268 268 269 270 270 270 270 270 269 270 271 269 269 271 273 275 274 274 275 274 273 275 275 276 277 276 277 278 278 278 278 277 276 276 277 277 278 277 277 278 277 275 275 275 273 272 275 278 279 280 281 280 279 276 273 273 272 270 271 272 273 276 279 279 278 277 275 274 277 283 286 287 288 288 287 289 292 295 297 298 297 296 296 296 298
267 267 268 268 268 269 270 270 271 272 271 271 269 266 265 267 269 270 270 271 272 271 271 272 273 274 275 275 275 275 276 276 276 275 275 275 274 275 276 278 279 279 279 278 277 277 277 275 274 276 277 277 277 279 278 277 275 274 273 271 271 273 274 274 275 275 276 276 275 275 275 277 281 282 282 284 284 286 289 291 293 294 294 294 294 294 295 296
267 268 268 269 269 270 271 271 270 271 271 270 268 265 266 268 269 268 266 267 268 269 270 270 270 271 272 272 272 272 273 273 274 274 273 273 273 274 275 276 279 281 281 281 280 279 278 277 276 276 276 275 276 278 277 276 275 275 274 273 275 277 275 273 273 272 273 274 273 274 276 277 278 279 279 280 282 284 287 288 288 289 291 292 293 293 294 294
268 268 268 269 269 270 270 270 269 268 268 267 265 266 267 268 268 265 262 263 264 266 267 267 266 268 269 269 269 270 271 272 273 273 273 273 272 273 275 276 279 282 285 285 284 282 280 278 276 274 274 275 276 277 277 276 275 274 273 275 277 275 273 273 275 275 274 274 272 271 272 274 275 276 278 280 282 285 285 284 285 287 289 290 291 293 294 292
269 269 269 269 269 269 269 268 268 267 267 267 266 266 266 267 267 263 259 260 260 261 264 265 265 265 265 266 266 266 269 272 273 275 275 275 273 272 275 279 281 284 287 287 284 283 280 276 274 274 274 275 276 276 276 275 276 277 278 278 276 275 274 274 275 276 276 275 273 269 268 269 271 273 276 280 282 284 284 283 284 286 287 288 290 291 291 290
269 270 270 270 270 270 269 269 268 268 267 268 268 267 267 267 267 265 262 261 261 260 261 263 266 267 265 264 265 264 266 269 271 273 274 274 274 273 276 281 282 284 286 285 284 283 279 271 271 275 277 277 276 275 275 276 278 280 280 278 276 275 274 272 271 272 273 272 272 269 267 268 272 273 274 276 279 282 284 284 285 286 288 289 291 290 289 289
269 269 270 272 272 270 270 269 268 268 268 269 270 270 269 268 267 266 266 266 265 265 264 265 268 269 267 266 265 265 265 266 268 270 270 271 271 271 273 278 282 284 285 286 287 285 279 271 268 272 276 277 277 277 277 277 277 276 274 274 275 274 272 270 268 268 269 269 270 270 270 271 273 273 272 272 274 277 281 283 284 286 288 288 288 288 287 288
269 269 270 271 271 270 270 269 268 269 269 269 270 271 271 270 269 268 268 269 269 269 269 270 270 271 271 270 268 268 268 267 267 269 270 270 270 271 270 274 281 285 285 285 286 283 277 273 270 269 268 268 271 272 272 271 270 269 269 270 271 272 270 267 266 268 270 268 268 270 271 271 270 269 270 270 272 276 280 282 283 284 285 285 285 284 283 283
268 269 270 269 269 268 269 268 268 269 269 270 271 271 271 270 269 268 267 267 269 269 270 271 271 271 272 271 271 270 271 271 270 270 272 272 273 274 274 276 281 284 283 282 281 279 278 277 274 270 266 265 266 269 270 270 270 270 269 268 269 269 268 265 264 267 268 266 267 268 268 270 271 271 272 274 277 279 280 280 281 282 284 285 283 281 281 280
269 269 269 269 269 269 269 268 269 270 270 271 271 271 270 270 269 268 267 266 267 268 268 269 269 270 270 270 271 271 272 273 271 270 273 274 276 278 279 280 280 278 276 276 276 276 279 279 275 273 273 272 272 273 274 275 277 277 277 276 274 272 271 268 266 266 264 263 266 266 266 271 276 275 275 276 278 280 280 280 280 281 282 282 280 279 280 280
270 270 270 270 269 270 270 271 272 272 271 271 271 270 270 270 269 269 269 269 268 268 269 269 269 269 269 269 270 271 271 273 272 271 273 274 275 278 279 277 273 267 268 273 276 279 282 281 276 273 273 272 272 273 275 277 281 283 283 284 281 278 277 275 273 271 268 268 271 270 270 276 281 278 277 278 278 279 281 281 280 278 277 275 274 274 275 277
272 271 271 271 270 270 270 271 272 273 272 272 271 271 270 271 271 272 272 270 270 270 270 270 269 269 269 269 270 270 270 271 272 272 272 272 273 274 274 271 265 260 263 270 275 280 281 278 273 269 268 269 272 275 277 279 281 282 282 283 282 279 278 279 278 275 274 278 280 277 278 285 287 283 283 284 281 279 278 278 275 273 273 272 271 271 271 273
273 272 272 273 272 271 271 271 272 273 274 274 273 272 271 272 272 273 272 271 272 272 272 271 270 269 269 269 270 270 270 270 271 272 271 271 270 270 270 267 262 261 265 272 276 278 277 275 273 273 272 273 275 277 278 279 280 281 281 282 281 279 276 276 275 274 278 282 280 280 286 290 288 288 290 290 286 280 274 270 269 270 272 270 269 270 272 274
273 273 274 273 272 272 273 273 274 274 275 275 275 274 273 273 273 273 272 272 273 272 271 271 271 271 271 272 271 271 271 270 270 271 271 271 270 269 268 267 265 265 268 272 275 277 277 276 276 276 277 278 279 280 280 280 280 281 281 280 280 279 275 271 270 274 279 279 279 284 287 285 284 289 291 292 291 286 276 269 267 270 272 271 268 268 272 276
272 272 273 272 272 273 275 275 275 275 275 275 275 275 275 275 275 275 274 273 272 271 271 271 272 272 272 272 272 271 270 270 270 270 271 272 271 269 268 267 267 268 270 273 274 276 277 277 276 277 278 278 279 280 281 281 280 281 281 280 280 278 274 269 270 275 278 277 279 283 281 280 284 289 290 291 290 286 279 273 270 271 272 272 270 269 272 275
271 271 271 271 272 273 274 275 275 275 275 274 274 275 275 276 276 276 276 275 273 272 272 272 272 272 272 271 270 269 270 270 271 271 271 272 271 271 269 268 268 269 271 274 275 276 276 276 276 277 277 278 278 279 279 280 279 280 280 279 278 275 271 269 272 276 277 275 277 278 277 279 284 287 291 292 287 281 277 273 271 272 274 272 268 268 269 271
271 271 271 271 272 273 273 274 274 274 273 273 274 275 276 276 275 274 273 273 273 273 272 272 272 271 270 269 269 269 270 270 270 270 270 271 271 271 271 270 269 269 269 271 273 275 275 275 278 279 279 279 279 280 280 279 278 278 277 275 272 270 271 273 276 277 277 275 275 277 277 278 284 290 293 290 283 277 273 269 266 267 271 271 269 269 269 269
272 272 272 272 272 273 273 273 273 273 273 274 275 276 275 274 274 273 272 271 272 272 272 271 271 270 269 268 268 268 268 268 268 268 268 269 269 269 270 270 269 269 269 269 270 270 271 274 277 279 277 277 278 280 281 279 278 278 275 271 270 272 276 278 278 277 277 277 278 278 277 281 288 293 289 283 278 274 269 266 265 266 270 272 271 270 268 269
273 273 273 273 273 273 274 274 273 273 274 275 276 275 274 273 273 273 273 272 271 271 272 272 271 270 270 269 267 267 267 266 267 268 268 267 267 266 266 266 266 267 268 268 268 269 270 273 275 275 276 277 279 280 280 278 276 275 275 274 275 276 276 275 273 274 276 278 280 279 281 285 288 286 283 280 277 274 271 271 271 272 272 271 270 269 267 267